STARLINK-32446, 61262

Orbit data source: Space-Track

STARLINK-32446, 61262 is a payload satellite owned by SpaceX/Seattle (US) in LEO that was launched on Wed, 25 Sep 2024 UTC via an FALCON 9 launch vehicle from the Air Force Western Test Range (AFWTR). Payload-class satellites include a variety of spacecraft equipped with specific instruments for various scientific and technological missions. These include communications satellites like Starlink; space stations such as the ISS; scientific satellites like the Hubble; Earth observation satellites from companies like Planet Labs, Umbra, and HawkEye 360; GPS; miniature CubeSats for education and research; and military/defense satellites.

Loading next visibility...
Identifier
61262, 2024-175V
Orbit
LEO
Country
Flag of USUS
Related business
Manufacturer
SpaceX/Seattle
Mission
Operational Commercial Communications
Bus & Motor
STARLINK V2M, Unknown motor
Mass
730 kg wet, ~700 kg dry
Launch date (UTC)
2024-09-25 (1 year ago)
Launch vehicle
FALCON 9
Launch site
Air Force Western Test Range (AFWTR)
Object type
Payload
Rocket body
Debris
Shape & HBR
Box + 2 Pan, 14.5 m
Radar Cross Section
33.884 m², Large (>1 m²)

Expand to show TLE details & history
Last TLE update: 23 hours ago

TLE from 23 hours ago
0 STARLINK-32446
1 61262U 24175V   25260.02866093 -.00000498  00000-0 -47037-5 0  9994
2 61262  53.1594 280.7966 0001312  90.2917 269.8234 15.30189433 54863
Epoch: 2025-09-17T00:41Z
TLE epoch observation values (Epoch: 2025-09-17T00:41:16.304Z)
Latitude
-0.00002°
Longitude
-85.73184°
Altitude
476.149 km
Speed
7.629 km/s
True Right ascension
18h 43m 11s
True Declination
0° 00' 00"
Sunlit
Object was in daylight at epoch
Visualization orbit readout
Latitude
Unknown
Longitude
Unknown
Altitude
Unknown
Speed
Unknown
Apparent Right ascension
Unknown
Apparent Declination
Unknown
Sunlit
N/A
Visualization observer readout
Local Sidereal Time
16:51:56
Azimuth
Unknown
Elevation
Unknown
Doppler factor
Unknown
Orbital elements
Apogee altitude
476.402 km
Perigee altitude
474.604 km
Semi-major axis
6,853.64 km
Eccentricity
0.00013
Inclination
53.1594°
RAAN
280.7966°
Arg. of periapsis
90.2917°
True anomaly
269.80837°
Mean anomaly
269.8234°
Eccentric anomaly
269.81588°
Mean motion
3.82526 °/min
Orbital period
94.11 mins
BSTAR
-0.0000047037
Loading maneuver chart data...
Computing Atmospheric mass density...
Loading historical data...
Loading historical data...
Loading historical data...
Loading historical data...
Loading historical data...
Loading historical data...
Loading historical data...

Documentation

Showing up to 5 results
|